Location: Hollin Hills
(38.7573°N, 77.0661°W)
Time: 19:09:29
(UTC+00:00)

BlueWalker 3 - Pass Details

Date: 16 April 2026
Orbit: 447 x 458 km, 53.2° (Epoch: 12 May)

Event Time Altitude Azimuth Distance (km) Brightness Sun altitude
Rises 00:13:38 0° 289° (WNW) 2,470 8.4 -6.1°
Reaches altitude 10° 00:17:15 10° 251° (WSW) 1,593 5.4 -6.8°
Maximum altitude 00:18:12 11° 236° (SW) 1,540 5.0 -7.0°
Drops below altitude 10° 00:19:09 10° 220° (SW) 1,590 4.8 -7.2°
Sets 00:22:45 0° 182° (S) 2,458 5.3 -7.8°
